User: anonymous   Login
Location: Fort Wayne
(41.1310°N, 85.1290°W)
Time: 06:17:23
(UTC-05:00)
Language:

Cosmos 2219 Rocket - Orbit

View from above orbital plane
View from above orbital plane
View from above satellite
View from above satellite

Ground track
Ground track

The orbit data is extracted from the following two-line orbital elements,

1 22220U 92076B   17052.70734198 -.00000036  00000-0  59849-5 0  9996
2 22220  71.0008 302.3297 0010509  88.7235 281.6093 14.16412510254421
Epoch (UTC): 21 February 2017 16:58:34
Eccentricity: 0.0010509
inclination: 71.0008°
perigee height: 830 km
apogee height: 845 km
right ascension of ascending node: 302.3297°
argument of perigee: 88.7235°
revolutions per day: 14.16412510
mean anomaly at epoch: 281.6093°
orbit number at epoch: 25442

The dashed part of the orbit path shows where the satellite is in the earth's shadow,  

DLR